| time (UTC) | temp C | wind direction | speed KPH | gust KPH | rain 1hr cm | rain 24hr cm | rain mn cm | humidity % | barometer mb |
| 20260504141246 | 12 | 246 | 6.4 | 16.1 | 0.00 | 0.00 | 0.00 | 86 | 1012.5 |
| 20260504141241 | 12 | 232 | 4.8 | 16.1 | 0.00 | 0.00 | 0.00 | 86 | 1012.6 |
| 20260504140242 | 12 | 319 | 4.8 | 14.5 | 0.00 | 0.00 | 0.00 | 86 | 1012.5 |
| 20260504130739 | 11 | 207 | 4.8 | 22.5 | 0.00 | 0.00 | 0.00 | 87 | 1011.8 |
| 20260504130239 | 11 | 315 | 4.8 | 22.5 | 0.00 | 0.00 | 0.00 | 87 | 1011.7 |
| 20260504120242 | 11 | 217 | 4.8 | 22.5 | 0.00 | 0.00 | 0.00 | 88 | 1011.2 |
| 20260504120238 | 11 | 230 | 6.4 | 22.5 | 0.00 | 0.00 | 0.00 | 88 | 1011.3 |
| 20260504110236 | 11 | 224 | 4.8 | 16.1 | 0.00 | 0.00 | 0.00 | 88 | 1010.8 |
| 20260504100238 | 11 | 233 | 4.8 | 19.3 | 0.00 | 0.00 | 0.00 | 88 | 1010.3 |
| 20260504100233 | 11 | 232 | 6.4 | 20.9 | 0.00 | 0.00 | 0.00 | 89 | 1010.4 |
| 20260504081732 | 11 | 279 | 6.4 | 20.9 | 0.00 | 0.00 | 0.00 | 87 | 1010.0 |
| 20260504081234 | 12 | 275 | 6.4 | 19.3 | 0.00 | 0.00 | 0.00 | 87 | 1009.9 |
| 20260504080739 | 12 | 254 | 6.4 | 19.3 | 0.00 | 0.00 | 0.00 | 86 | 1009.9 |
| 20260504080733 | 12 | 271 | 6.4 | 19.3 | 0.00 | 0.00 | 0.00 | 86 | 1009.9 |
| 20260504080233 | 12 | 239 | 6.4 | 19.3 | 0.00 | 0.00 | 0.00 | 86 | 1010.0 |
| 20260504060230 | 14 | 250 | 6.4 | 16.1 | 0.00 | 0.00 | 0.00 | 77 | 1009.2 |
| 20260504050727 | 16 | 226 | 4.8 | 19.3 | 0.00 | 0.00 | 0.00 | 68 | 1008.7 |
| 20260504050225 | 17 | 279 | 4.8 | 19.3 | 0.00 | 0.00 | 0.00 | 67 | 1008.6 |
| 20260504045729 | 17 | 231 | 4.8 | 14.5 | 0.00 | 0.00 | 0.00 | 64 | 1008.4 |
| 20260504045725 | 17 | 246 | 4.8 | 19.3 | 0.00 | 0.00 | 0.00 | 66 | 1008.4 |
| 20260504044726 | 18 | 251 | 4.8 | 12.9 | 0.00 | 0.00 | 0.00 | 63 | 1008.3 |
| 20260504044227 | 18 | 238 | 4.8 | 12.9 | 0.00 | 0.00 | 0.00 | 61 | 1008.2 |
| 20260504043725 | 19 | 309 | 4.8 | 12.9 | 0.00 | 0.00 | 0.00 | 59 | 1008.1 |
| 20260504043223 | 20 | 234 | 3.2 | 11.3 | 0.00 | 0.00 | 0.00 | 56 | 1008.0 |
| 20260504042723 | 20 | 240 | 1.6 | 6.4 | 0.00 | 0.00 | 0.00 | 55 | 1007.9 |
| 20260504042223 | 21 | 327 | 3.2 | 12.9 | 0.00 | 0.00 | 0.00 | 53 | 1007.8 |
| 20260504041722 | 21 | 272 | 3.2 | 12.9 | 0.00 | 0.00 | 0.00 | 51 | 1007.7 |
| 20260504041223 | 21 | 226 | 3.2 | 14.5 | 0.00 | 0.00 | 0.00 | 50 | 1007.6 |
| 20260504040723 | 22 | 288 | 3.2 | 14.5 | 0.00 | 0.00 | 0.00 | 49 | 1007.5 |
| 20260504040222 | 22 | 259 | 3.2 | 11.3 | 0.00 | 0.00 | 0.00 | 48 | 1007.4 |
| 20260504035723 | 22 | 266 | 3.2 | 8.0 | 0.00 | 0.00 | 0.00 | 47 | 1007.4 |
| 20260504035222 | 23 | 281 | 3.2 | 8.0 | 0.00 | 0.00 | 0.00 | 46 | 1007.4 |
| 20260504034728 | 23 | 239 | 3.2 | 14.5 | 0.00 | 0.00 | 0.00 | 44 | 1007.3 |
| 20260504034723 | 23 | 262 | 3.2 | 14.5 | 0.00 | 0.00 | 0.00 | 44 | 1007.3 |
| 20260504033722 | 23 | 214 | 3.2 | 14.5 | 0.00 | 0.00 | 0.00 | 43 | 1007.3 |
| 20260504033222 | 23 | 267 | 1.6 | 9.7 | 0.00 | 0.00 | 0.00 | 43 | 1007.3 |
| 20260504032724 | 23 | 258 | 1.6 | 4.8 | 0.00 | 0.00 | 0.00 | 42 | 1007.2 |
| 20260504032222 | 23 | 272 | 0.0 | 3.2 | 0.00 | 0.00 | 0.00 | 42 | 1007.0 |
| 20260504031722 | 24 | 240 | 1.6 | 9.7 | 0.00 | 0.00 | 0.00 | 41 | 1007.1 |
| 20260504031229 | 25 | 281 | 1.6 | 8.0 | 0.00 | 0.00 | 0.00 | 39 | 1007.0 |
| 20260504031223 | 24 | 265 | 1.6 | 9.7 | 0.00 | 0.00 | 0.00 | 40 | 1007.0 |
| 20260504030722 | 25 | 254 | 1.6 | 9.7 | 0.00 | 0.00 | 0.00 | 40 | 1007.0 |
| 20260504030222 | 25 | 257 | 1.6 | 9.7 | 0.00 | 0.00 | 0.00 | 40 | 1007.0 |
| 20260504025722 | 25 | 254 | 1.6 | 6.4 | 0.00 | 0.00 | 0.00 | 39 | 1006.9 |
| 20260504024722 | 25 | 251 | 1.6 | 8.0 | 0.00 | 0.00 | 0.00 | 39 | 1007.0 |
| 20260504024222 | 26 | 273 | 1.6 | 8.0 | 0.00 | 0.00 | 0.00 | 37 | 1006.9 |
| 20260504023724 | 26 | 255 | 1.6 | 8.0 | 0.00 | 0.00 | 0.00 | 38 | 1006.9 |
| 20260504023224 | 26 | 246 | 1.6 | 8.0 | 0.00 | 0.00 | 0.00 | 38 | 1006.9 |
| 20260504022724 | 27 | 251 | 1.6 | 8.0 | 0.00 | 0.00 | 0.00 | 39 | 1006.9 |
| 20260504022224 | 27 | 234 | 1.6 | 8.0 | 0.00 | 0.00 | 0.00 | 39 | 1006.9 |
| 20260504021727 | 27 | 246 | 1.6 | 6.4 | 0.00 | 0.00 | 0.00 | 39 | 1006.9 |
| 20260504021723 | 27 | 230 | 1.6 | 6.4 | 0.00 | 0.00 | 0.00 | 40 | 1006.8 |
| 20260504020723 | 28 | 261 | 1.6 | 6.4 | 0.00 | 0.00 | 0.00 | 39 | 1006.9 |
| 20260504020221 | 28 | 270 | 1.6 | 8.0 | 0.00 | 0.00 | 0.00 | 39 | 1006.9 |
| 20260504015833 | 29 | 240 | 1.6 | 6.4 | 0.00 | 0.00 | 0.00 | 38 | 1006.9 |
| 20260504015724 | 29 | 250 | 1.6 | 6.4 | 0.00 | 0.00 | 0.00 | 38 | 1006.9 |
| 20260504015718 | 28 | 238 | 1.6 | 8.0 | 0.00 | 0.00 | 0.00 | 37 | 1006.9 |
| 20260504014219 | 29 | 257 | 3.2 | 11.3 | 0.00 | 0.00 | 0.00 | 41 | 1006.9 |
| 20260504013719 | 29 | 277 | 4.8 | 11.3 | 0.00 | 0.00 | 0.00 | 39 | 1006.9 |
| 20260504013222 | 29 | 205 | 4.8 | 11.3 | 0.00 | 0.00 | 0.00 | 39 | 1006.9 |
| 20260504013218 | 29 | 232 | 4.8 | 11.3 | 0.00 | 0.00 | 0.00 | 37 | 1006.8 |
| 20260504012217 | 30 | 228 | 3.2 | 11.3 | 0.00 | 0.00 | 0.00 | 38 | 1006.9 |
| 20260504011714 | 30 | 251 | 1.6 | 6.4 | 0.00 | 0.00 | 0.00 | 37 | 1006.9 |
| 20260504011214 | 30 | 250 | 1.6 | 6.4 | 0.00 | 0.00 | 0.00 | 36 | 1006.9 |
| 20260504010711 | 31 | 255 | 1.6 | 6.4 | 0.00 | 0.00 | 0.00 | 36 | 1007.0 |
| 20260504010212 | 31 | 255 | 1.6 | 6.4 | 0.00 | 0.00 | 0.00 | 38 | 1007.0 |
| 20260504005710 | 31 | 272 | 0.0 | 6.4 | 0.00 | 0.00 | 0.00 | 34 | 1007.1 |
| 20260504005211 | 32 | 238 | 0.0 | 3.2 | 0.00 | 0.00 | 0.00 | 37 | 1007.1 |
| 20260504004710 | 31 | 178 | 0.0 | 3.2 | 0.00 | 0.00 | 0.00 | 39 | 1007.1 |
| 20260504004211 | 31 | 178 | 1.6 | 4.8 | 0.00 | 0.00 | 0.00 | 34 | 1007.1 |
| 20260504003711 | 31 | 178 | 1.6 | 4.8 | 0.00 | 0.00 | 0.00 | 27 | 1007.1 |
| 20260504003210 | 31 | 176 | 1.6 | 8.0 | 0.00 | 0.00 | 0.00 | 32 | 1007.1 |
| 20260504002708 | 31 | 178 | 1.6 | 8.0 | 0.00 | 0.00 | 0.00 | 28 | 1007.1 |
| 20260504002206 | 31 | 167 | 0.0 | 4.8 | 0.00 | 0.00 | 0.00 | 32 | 1007.2 |
| 20260504001708 | 31 | 167 | 1.6 | 8.0 | 0.00 | 0.00 | 0.00 | 37 | 1007.1 |
| 20260504001202 | 31 | 166 | 1.6 | 8.0 | 0.00 | 0.00 | 0.00 | 37 | 1007.2 |
| 20260504000704 | 31 | 175 | 0.0 | 3.2 | 0.00 | 0.00 | 0.00 | 29 | 1007.1 |
| 20260504000204 | 31 | 182 | 1.6 | 6.4 | 0.00 | 0.00 | 0.00 | 34 | 1007.1 |
| 20260503235702 | 31 | 184 | 1.6 | 6.4 | 0.00 | 0.00 | 0.00 | 36 | 1007.1 |
| 20260503235202 | 31 | 13 | 1.6 | 4.8 | 0.00 | 0.00 | 0.00 | 34 | 1007.2 |
| 20260503234706 | 31 | 355 | 1.6 | 3.2 | 0.00 | 0.00 | 0.00 | 40 | 1007.2 |
| 20260503234702 | 31 | 180 | 1.6 | 3.2 | 0.00 | 0.00 | 0.00 | 36 | 1007.2 |
| 20260503233702 | 31 | 346 | 1.6 | 4.8 | 0.00 | 0.00 | 0.00 | 36 | 1007.3 |
| 20260503233203 | 31 | 329 | 1.6 | 4.8 | 0.00 | 0.00 | 0.00 | 34 | 1007.3 |
| 20260503232701 | 31 | 44 | 0.0 | 4.8 | 0.00 | 0.00 | 0.00 | 30 | 1007.4 |
| 20260503232208 | 31 | 21 | 1.6 | 4.8 | 0.00 | 0.00 | 0.00 | 32 | 1007.7 |
| 20260503232200 | 31 | 331 | 1.6 | 3.2 | 0.00 | 0.00 | 0.00 | 31 | 1007.5 |
| 20260503231700 | 31 | 323 | 1.6 | 4.8 | 0.00 | 0.00 | 0.00 | 40 | 1007.5 |
| 20260503231200 | 31 | 318 | 1.6 | 4.8 | 0.00 | 0.00 | 0.00 | 33 | 1007.5 |
| 20260503230819 | 31 | 22 | 1.6 | 4.8 | 0.00 | 0.00 | 0.00 | 41 | 1007.8 |
| 20260503230701 | 31 | 26 | 1.6 | 4.8 | 0.00 | 0.00 | 0.00 | 33 | 1007.6 |
| 20260503230426 | 31 | 313 | 1.6 | 3.2 | 0.00 | 0.00 | 0.00 | 33 | 1007.9 |
| 20260503225313 | 31 | 334 | 1.6 | 4.8 | 0.00 | 0.00 | 0.00 | 35 | 1007.9 |
| 20260503224813 | 31 | 12 | 1.6 | 4.8 | 0.00 | 0.00 | 0.00 | 39 | 1008.1 |
| 20260503223658 | 31 | 9 | 1.6 | 4.8 | 0.00 | 0.00 | 0.00 | 38 | 1008.1 |
| 20260503223159 | 30 | 162 | 1.6 | 6.4 | 0.00 | 0.00 | 0.00 | 35 | 1008.1 |
| 20260503222658 | 30 | 123 | 1.6 | 6.4 | 0.00 | 0.00 | 0.00 | 34 | 1008.2 |
| 20260503222157 | 30 | 69 | 1.6 | 4.8 | 0.00 | 0.00 | 0.00 | 31 | 1008.3 |
| 20260503221658 | 30 | 355 | 1.6 | 4.8 | 0.00 | 0.00 | 0.00 | 36 | 1008.4 |
| 20260503221159 | 30 | 178 | 1.6 | 4.8 | 0.00 | 0.00 | 0.00 | 35 | 1008.5 |
| 20260503220703 | 30 | 277 | 1.6 | 3.2 | 0.00 | 0.00 | 0.00 | 33 | 1008.6 |
| 20260503220658 | 30 | 0 | 1.6 | 3.2 | 0.00 | 0.00 | 0.00 | 38 | 1008.5 |
| 20260503215658 | 30 | 277 | 1.6 | 3.2 | 0.00 | 0.00 | 0.00 | 38 | 1008.8 |
| 20260503215203 | 30 | 177 | 1.6 | 3.2 | 0.00 | 0.00 | 0.00 | 37 | 1008.9 |
| 20260503215157 | 30 | 276 | 1.6 | 3.2 | 0.00 | 0.00 | 0.00 | 34 | 1008.8 |
| 20260503214155 | 30 | 165 | 1.6 | 6.4 | 0.00 | 0.00 | 0.00 | 38 | 1009.0 |
| 20260503213657 | 30 | 346 | 1.6 | 6.4 | 0.00 | 0.00 | 0.00 | 36 | 1009.0 |
| 20260503213156 | 30 | 20 | 1.6 | 4.8 | 0.00 | 0.00 | 0.00 | 42 | 1009.1 |
| 20260503212701 | 29 | 178 | 1.6 | 8.0 | 0.00 | 0.00 | 0.00 | 40 | 1009.2 |
| 20260503212656 | 29 | 113 | 1.6 | 8.0 | 0.00 | 0.00 | 0.00 | 42 | 1009.2 |
| 20260503212308 | 29 | 336 | 3.2 | 8.0 | 0.00 | 0.00 | 0.00 | 40 | 1009.3 |
| 20260503211156 | 29 | 351 | 1.6 | 8.0 | 0.00 | 0.00 | 0.00 | 39 | 1009.3 |
| 20260503210656 | 29 | 22 | 1.6 | 4.8 | 0.00 | 0.00 | 0.00 | 43 | 1009.3 |
| 20260503210156 | 29 | 292 | 1.6 | 11.3 | 0.00 | 0.00 | 0.00 | 45 | 1009.4 |
| 20260503205655 | 28 | 9 | 1.6 | 11.3 | 0.00 | 0.00 | 0.00 | 42 | 1009.5 |
| 20260503205200 | 28 | 340 | 1.6 | 6.4 | 0.00 | 0.00 | 0.00 | 49 | 1009.6 |
| 20260503205155 | 28 | 19 | 1.6 | 6.4 | 0.00 | 0.00 | 0.00 | 47 | 1009.5 |
| 20260503204655 | 28 | 248 | 1.6 | 6.4 | 0.00 | 0.00 | 0.00 | 44 | 1009.5 |
| 20260503203700 | 27 | 181 | 1.6 | 8.0 | 0.00 | 0.00 | 0.00 | 47 | 1009.7 |
| 20260503203654 | 28 | 34 | 1.6 | 4.8 | 0.00 | 0.00 | 0.00 | 47 | 1009.6 |
| 20260503203154 | 27 | 190 | 1.6 | 3.2 | 0.00 | 0.00 | 0.00 | 45 | 1009.7 |
| 20260503202154 | 27 | 192 | 1.6 | 8.0 | 0.00 | 0.00 | 0.00 | 48 | 1009.8 |
| 20260503201658 | 27 | 168 | 1.6 | 8.0 | 0.00 | 0.00 | 0.00 | 53 | 1010.0 |
| 20260503201654 | 27 | 208 | 1.6 | 8.0 | 0.00 | 0.00 | 0.00 | 47 | 1009.9 |
| 20260503200653 | 26 | 171 | 1.6 | 6.4 | 0.00 | 0.00 | 0.00 | 53 | 1010.0 |
| 20260503200152 | 26 | 178 | 3.2 | 8.0 | 0.00 | 0.00 | 0.00 | 51 | 1010.0 |
| 20260503195653 | 26 | 285 | 3.2 | 8.0 | 0.00 | 0.00 | 0.00 | 48 | 1010.1 |
| 20260503195152 | 26 | 336 | 1.6 | 6.4 | 0.00 | 0.00 | 0.00 | 52 | 1010.2 |
| 20260503194652 | 26 | 343 | 0.0 | 4.8 | 0.00 | 0.00 | 0.00 | 56 | 1010.3 |
| 20260503194151 | 26 | 284 | 1.6 | 4.8 | 0.00 | 0.00 | 0.00 | 51 | 1010.4 |
| 20260503193652 | 26 | 29 | 1.6 | 8.0 | 0.00 | 0.00 | 0.00 | 53 | 1010.4 |
| 20260503193152 | 26 | 25 | 1.6 | 8.0 | 0.00 | 0.00 | 0.00 | 56 | 1010.4 |
| 20260503192652 | 25 | 21 | 1.6 | 8.0 | 0.00 | 0.00 | 0.00 | 52 | 1010.4 |
| 20260503192158 | 25 | 215 | 1.6 | 6.4 | 0.00 | 0.00 | 0.00 | 57 | 1010.5 |
| 20260503192153 | 25 | 115 | 1.6 | 8.0 | 0.00 | 0.00 | 0.00 | 54 | 1010.5 |
| 20260503191158 | 25 | 180 | 3.2 | 8.0 | 0.00 | 0.00 | 0.00 | 54 | 1010.7 |
| 20260503191153 | 25 | 178 | 3.2 | 6.4 | 0.00 | 0.00 | 0.00 | 52 | 1010.6 |
| 20260503190653 | 25 | 165 | 3.2 | 8.0 | 0.00 | 0.00 | 0.00 | 54 | 1010.6 |
| 20260503185653 | 25 | 184 | 1.6 | 8.0 | 0.00 | 0.00 | 0.00 | 56 | 1010.8 |
| 20260503185153 | 25 | 54 | 1.6 | 8.0 | 0.00 | 0.00 | 0.00 | 52 | 1010.9 |
| 20260503184652 | 25 | 67 | 1.6 | 8.0 | 0.00 | 0.00 | 0.00 | 53 | 1010.9 |
| 20260503184152 | 24 | 172 | 1.6 | 4.8 | 0.00 | 0.00 | 0.00 | 55 | 1010.9 |
| 20260503183649 | 24 | 338 | 1.6 | 4.8 | 0.00 | 0.00 | 0.00 | 59 | 1010.9 |
| 20260503183151 | 24 | 183 | 1.6 | 4.8 | 0.00 | 0.00 | 0.00 | 56 | 1011.0 |
| 20260503182650 | 24 | 169 | 1.6 | 4.8 | 0.00 | 0.00 | 0.00 | 58 | 1011.0 |
| 20260503182155 | 23 | 92 | 1.6 | 8.0 | 0.00 | 0.00 | 0.00 | 65 | 1011.1 |
| 20260503182151 | 23 | 140 | 1.6 | 8.0 | 0.00 | 0.00 | 0.00 | 62 | 1011.0 |
| 20260503181150 | 23 | 74 | 1.6 | 8.0 | 0.00 | 0.00 | 0.00 | 61 | 1011.1 |
| 20260503180650 | 23 | 71 | 3.2 | 8.0 | 0.00 | 0.00 | 0.00 | 60 | 1011.1 |
| 20260503180150 | 22 | 145 | 3.2 | 8.0 | 0.00 | 0.00 | 0.00 | 60 | 1011.2 |
| 20260503175650 | 22 | 161 | 3.2 | 9.7 | 0.00 | 0.00 | 0.00 | 65 | 1011.2 |
| 20260503175150 | 22 | 176 | 3.2 | 9.7 | 0.00 | 0.00 | 0.00 | 61 | 1011.2 |
| 20260503174649 | 22 | 86 | 1.6 | 8.0 | 0.00 | 0.00 | 0.00 | 60 | 1011.2 |
| 20260503174156 | 22 | 173 | 1.6 | 6.4 | 0.00 | 0.00 | 0.00 | 62 | 1011.3 |
| 20260503174149 | 22 | 182 | 1.6 | 4.8 | 0.00 | 0.00 | 0.00 | 63 | 1011.2 |
| 20260503173650 | 22 | 146 | 1.6 | 4.8 | 0.00 | 0.00 | 0.00 | 60 | 1011.3 |
| 20260503172655 | 21 | 70 | 1.6 | 6.4 | 0.00 | 0.00 | 0.00 | 63 | 1011.3 |
| 20260503172650 | 21 | 58 | 1.6 | 6.4 | 0.00 | 0.00 | 0.00 | 63 | 1011.3 |
| 20260503171654 | 21 | 171 | 0.0 | 3.2 | 0.00 | 0.00 | 0.00 | 63 | 1011.3 |
| 20260503171649 | 21 | 175 | 1.6 | 6.4 | 0.00 | 0.00 | 0.00 | 64 | 1011.3 |
| 20260503170651 | 21 | 158 | 0.0 | 3.2 | 0.00 | 0.00 | 0.00 | 66 | 1011.3 |
| 20260503170155 | 21 | 103 | 0.0 | 4.8 | 0.00 | 0.00 | 0.00 | 68 | 1011.4 |
| 20260503170149 | 21 | 157 | 0.0 | 4.8 | 0.00 | 0.00 | 0.00 | 64 | 1011.4 |
| 20260503160148 | 18 | 166 | 0.0 | 0.0 | 0.00 | 0.00 | 0.00 | 83 | 1011.5 |
| 20260503160144 | 18 | 166 | 0.0 | 0.0 | 0.00 | 0.00 | 0.00 | 81 | 1011.5 |
| 20260503150645 | 13 | 167 | 0.0 | 0.0 | 0.00 | 0.00 | 0.00 | 95 | 1011.7 |
| 20260503150641 | 14 | 167 | 0.0 | 0.0 | 0.00 | 0.00 | 0.00 | 93 | 1011.7 |